When you browse on this site, cookies collect data to enhance your experience and personalize the content and advertising you see.
Visit our Privacy Policy to learn more. By continuing to use the site, you agree to this use of cookies and data.
  • In Portugal
  • List of Countries
  • For 7 days
  • Water Temperature
  • Satellite Maps
  • Weather Map
  • Weather Widgets
  • user-avatar
    Login

    Hourly Weather Bagdad

    Today, 21 March, Thursday

    Time Temperature Precipitation Wind Pressure Humidity
    00:00 +16°C° 0 mm 3 mps 759 mmHg 27%
    01:00 +16°C° 0 mm 3 mps 759 mmHg 29%
    02:00 +14°C° 0 mm 3 mps 758 mmHg 30%
    03:00 +14°C° 0 mm 3 mps 758 mmHg 31%
    04:00 +14°C° 0 mm 3 mps 758 mmHg 32%
    05:00 +13°C° 0 mm 3 mps 758 mmHg 33%
    06:00 +13°C° 0 mm 3 mps 758 mmHg 33%
    07:00 +14°C° 0 mm 3 mps 758 mmHg 31%
    08:00 +17°C° 0 mm 3 mps 759 mmHg 28%
    09:00 +18°C° 0 mm 3 mps 759 mmHg 25%
    10:00 +19°C° 0 mm 4 mps 759 mmHg 22%
    11:00 +20°C° 0 mm 4 mps 759 mmHg 19%
    12:00 +22°C° 0 mm 4 mps 759 mmHg 17%
    13:00 +22°C° 0 mm 4 mps 758 mmHg 16%
    14:00 +23°C° 0 mm 4 mps 758 mmHg 15%
    15:00 +23°C° 0 mm 4 mps 758 mmHg 14%
    16:00 +23°C° 0 mm 4 mps 758 mmHg 15%
    17:00 +22°C° 0 mm 4 mps 757 mmHg 16%
    18:00 +21°C° 0 mm 4 mps 757 mmHg 16%
    19:00 +21°C° 0 mm 3 mps 757 mmHg 18%
    20:00 +20°C° 0 mm 3 mps 758 mmHg 19%
    21:00 +19°C° 0 mm 3 mps 758 mmHg 20%
    22:00 +19°C° 0 mm 3 mps 758 mmHg 21%
    23:00 +18°C° 0 mm 3 mps 758 mmHg 23%

    Tomorrow, 22 March, Friday

    Time Temperature Precipitation Wind Pressure Humidity
    00:00 +18°C° 0 mm 3 mps 758 mmHg 25%
    01:00 +17°C° 0 mm 2 mps 758 mmHg 26%
    02:00 +17°C° 0 mm 2 mps 758 mmHg 28%
    03:00 +16°C° 0 mm 2 mps 758 mmHg 30%
    04:00 +16°C° 0 mm 2 mps 758 mmHg 31%
    05:00 +16°C° 0 mm 2 mps 758 mmHg 32%
    06:00 +15°C° 0 mm 2 mps 758 mmHg 33%
    07:00 +17°C° 0 mm 2 mps 758 mmHg 31%
    08:00 +18°C° 0 mm 2 mps 759 mmHg 28%
    09:00 +20°C° 0 mm 2 mps 759 mmHg 25%
    10:00 +21°C° 0 mm 2 mps 759 mmHg 23%
    11:00 +22°C° 0 mm 3 mps 759 mmHg 20%
    12:00 +25°C° 0 mm 3 mps 759 mmHg 18%
    13:00 +25°C° 0 mm 3 mps 758 mmHg 17%
    14:00 +26°C° 0 mm 3 mps 758 mmHg 16%
    15:00 +26°C° 0 mm 3 mps 757 mmHg 16%
    16:00 +26°C° 0 mm 3 mps 757 mmHg 17%
    17:00 +25°C° 0 mm 4 mps 757 mmHg 18%
    18:00 +23°C° 0 mm 4 mps 757 mmHg 19%
    19:00 +24°C° 0 mm 3 mps 758 mmHg 20%
    20:00 +22°C° 0 mm 3 mps 758 mmHg 21%
    21:00 +21°C° 0 mm 3 mps 758 mmHg 22%
    22:00 +21°C° 0 mm 2 mps 758 mmHg 24%
    23:00 +20°C° 0 mm 2 mps 758 mmHg 25%

    Day after tomorrow, 23 March, Saturday

    Time Temperature Precipitation Wind Pressure Humidity
    00:00 +21°C° 0 mm 1 mps 758 mmHg 26%
    01:00 +21°C° 0 mm 1 mps 758 mmHg 26%
    02:00 +20°C° 0 mm 1 mps 758 mmHg 27%
    03:00 +19°C° 0 mm 2 mps 758 mmHg 28%
    04:00 +18°C° 0 mm 2 mps 758 mmHg 29%
    05:00 +18°C° 0 mm 2 mps 758 mmHg 31%
    06:00 +17°C° 0 mm 2 mps 758 mmHg 32%
    07:00 +20°C° 0 mm 1 mps 758 mmHg 30%
    08:00 +21°C° 0 mm 1 mps 758 mmHg 27%
    09:00 +21°C° 0 mm 0 mps 759 mmHg 24%
    10:00 +24°C° 0 mm 1 mps 758 mmHg 22%
    11:00 +25°C° 0 mm 1 mps 758 mmHg 19%
    12:00 +26°C° 0 mm 1 mps 758 mmHg 17%
    13:00 +26°C° 0 mm 1 mps 757 mmHg 17%
    14:00 +24°C° 0 mm 0 mps 756 mmHg 17%
    15:00 +25°C° 0 mm 0 mps 756 mmHg 17%
    16:00 +24°C° 0 mm 0 mps 756 mmHg 19%
    17:00 +24°C° 0 mm 0 mps 755 mmHg 21%
    18:00 +23°C° 0 mm 0 mps 755 mmHg 23%
    19:00 +23°C° 0 mm 0 mps 755 mmHg 24%
    20:00 +23°C° 0 mm 0 mps 755 mmHg 24%
    21:00 +25°C° 0 mm 1 mps 755 mmHg 25%
    22:00 +24°C° 0 mm 1 mps 755 mmHg 25%
    23:00 +23°C° 0 mm 2 mps 754 mmHg 25%

    24 March, Sunday

    Time Temperature Precipitation Wind Pressure Humidity
    00:00 +23°C° 0 mm 2 mps 754 mmHg 25%
    01:00 +23°C° 0.1 mm 2 mps 753 mmHg 27%
    02:00 +21°C° 0.1 mm 2 mps 753 mmHg 29%
    03:00 +21°C° 0.1 mm 2 mps 752 mmHg 31%
    04:00 +21°C° 0.2 mm 3 mps 752 mmHg 34%
    05:00 +20°C° 0.2 mm 4 mps 752 mmHg 38%
    06:00 +20°C° 0.2 mm 4 mps 752 mmHg 41%
    07:00 +20°C° 0 mm 5 mps 752 mmHg 41%
    08:00 +21°C° 0 mm 6 mps 752 mmHg 42%
    09:00 +22°C° 0 mm 6 mps 752 mmHg 43%
    10:00 +24°C° 0 mm 7 mps 751 mmHg 36%
    11:00 +26°C° 0 mm 8 mps 751 mmHg 30%
    12:00 +28°C° 0 mm 8 mps 750 mmHg 23%
    13:00 +28°C° 0 mm 8 mps 749 mmHg 23%
    14:00 +29°C° 0 mm 8 mps 748 mmHg 22%
    15:00 +29°C° 0 mm 8 mps 748 mmHg 22%
    16:00 +29°C° 0.1 mm 7 mps 747 mmHg 23%
    17:00 +28°C° 0.1 mm 6 mps 747 mmHg 24%
    18:00 +27°C° 0.1 mm 6 mps 747 mmHg 25%
    19:00 +24°C° 0 mm 7 mps 747 mmHg 31%
    20:00 +23°C° 0 mm 9 mps 748 mmHg 38%
    21:00 +21°C° 0 mm 11 mps 748 mmHg 44%
    22:00 +19°C° 0 mm 10 mps 748 mmHg 48%
    23:00 +19°C° 0 mm 9 mps 749 mmHg 52%

    25 March, Monday

    Time Temperature Precipitation Wind Pressure Humidity
    00:00 +18°C° 0 mm 7 mps 749 mmHg 55%
    01:00 +18°C° 0.2 mm 7 mps 749 mmHg 60%
    02:00 +17°C° 0.2 mm 7 mps 749 mmHg 65%
    03:00 +17°C° 0.2 mm 7 mps 748 mmHg 69%
    04:00 +17°C° 0.8 mm 6 mps 749 mmHg 72%
    05:00 +16°C° 0.8 mm 5 mps 749 mmHg 74%
    06:00 +16°C° 0.8 mm 5 mps 749 mmHg 77%
    07:00 +18°C° 0.5 mm 4 mps 750 mmHg 73%
    08:00 +18°C° 0.5 mm 4 mps 750 mmHg 70%
    09:00 +18°C° 0.5 mm 4 mps 751 mmHg 66%
    10:00 +17°C° 0.3 mm 5 mps 751 mmHg 61%
    11:00 +17°C° 0.3 mm 5 mps 751 mmHg 55%
    12:00 +16°C° 0.3 mm 6 mps 751 mmHg 49%
    13:00 +15°C° 0.9 mm 6 mps 751 mmHg 52%
    14:00 +14°C° 0.9 mm 5 mps 751 mmHg 54%
    15:00 +14°C° 0.9 mm 5 mps 750 mmHg 57%
    16:00 +13°C° 0.9 mm 4 mps 750 mmHg 57%
    17:00 +13°C° 0.9 mm 4 mps 751 mmHg 58%
    18:00 +13°C° 0.9 mm 3 mps 751 mmHg 58%
    19:00 +13°C° 0.2 mm 3 mps 751 mmHg 55%
    20:00 +13°C° 0.2 mm 3 mps 752 mmHg 52%
    21:00 +14°C° 0.2 mm 3 mps 752 mmHg 48%
    22:00 +14°C° 0 mm 2 mps 751 mmHg 49%
    23:00 +14°C° 0 mm 2 mps 751 mmHg 50%

    26 March, Tuesday

    Time Temperature Precipitation Wind Pressure Humidity
    00:00 +13°C° 0 mm 2 mps 751 mmHg 51%
    01:00 +13°C° 0 mm 2 mps 751 mmHg 48%
    02:00 +13°C° 0 mm 2 mps 751 mmHg 45%
    03:00 +13°C° 0 mm 2 mps 751 mmHg 42%
    04:00 +13°C° 0 mm 2 mps 751 mmHg 42%
    05:00 +12°C° 0 mm 2 mps 751 mmHg 41%
    06:00 +12°C° 0 mm 2 mps 751 mmHg 41%
    07:00 +14°C° 0 mm 2 mps 752 mmHg 36%
    08:00 +15°C° 0 mm 2 mps 752 mmHg 31%
    09:00 +16°C° 0 mm 3 mps 753 mmHg 27%
    10:00 +17°C° 0 mm 3 mps 753 mmHg 27%
    11:00 +18°C° 0 mm 3 mps 753 mmHg 27%
    12:00 +19°C° 0 mm 3 mps 753 mmHg 27%
    13:00 +19°C° 0 mm 2 mps 753 mmHg 27%
    14:00 +19°C° 0 mm 2 mps 753 mmHg 27%
    15:00 +20°C° 0 mm 1 mps 753 mmHg 27%
    16:00 +20°C° 0 mm 1 mps 754 mmHg 27%
    17:00 +20°C° 0 mm 1 mps 754 mmHg 28%
    18:00 +20°C° 0 mm 1 mps 755 mmHg 29%
    19:00 +19°C° 0 mm 1 mps 756 mmHg 30%
    20:00 +19°C° 0 mm 1 mps 756 mmHg 31%
    21:00 +18°C° 0 mm 1 mps 757 mmHg 32%
    22:00 +18°C° 0 mm 1 mps 757 mmHg 33%
    23:00 +16°C° 0 mm 1 mps 757 mmHg 34%
    Show more